When you browse on this site, cookies collect data to enhance your experience and personalize the content and advertising you see.
Visit our Privacy Policy to learn more. By continuing to use the site, you agree to this use of cookies and data.
  • In France
  • List of Countries
  • For 7 days
  • Water Temperature
  • Weather Map
  • Weather Widgets
  • user-avatar
    Login

    Hourly Weather Masvingo

    Today, 3 June, Wednesday

    Time Temperature Precipitation Wind Pressure Humidity
    00:00 +12°C° 0 mm 2 mps 675 mmHg 75%
    01:00 +12°C° 0 mm 1 mps 674 mmHg 77%
    02:00 +11°C° 0 mm 1 mps 674 mmHg 81%
    03:00 +11°C° 0 mm 1 mps 674 mmHg 83%
    04:00 +10°C° 0 mm 1 mps 674 mmHg 86%
    05:00 +10°C° 0 mm 1 mps 674 mmHg 88%
    06:00 +12°C° 0 mm 1 mps 674 mmHg 82%
    07:00 +13°C° 0 mm 1 mps 675 mmHg 75%
    08:00 +15°C° 0 mm 1 mps 676 mmHg 68%
    09:00 +19°C° 0 mm 1 mps 676 mmHg 57%
    10:00 +20°C° 0 mm 2 mps 676 mmHg 47%
    11:00 +22°C° 0 mm 3 mps 676 mmHg 37%
    12:00 +24°C° 0 mm 3 mps 676 mmHg 33%
    13:00 +25°C° 0 mm 3 mps 675 mmHg 30%
    14:00 +26°C° 0 mm 3 mps 675 mmHg 27%
    15:00 +25°C° 0 mm 3 mps 674 mmHg 31%
    16:00 +22°C° 0 mm 3 mps 674 mmHg 35%
    17:00 +21°C° 0 mm 3 mps 673 mmHg 39%
    18:00 +19°C° 0 mm 3 mps 673 mmHg 46%
    19:00 +17°C° 0 mm 2 mps 674 mmHg 54%
    20:00 +15°C° 0 mm 2 mps 674 mmHg 61%
    21:00 +14°C° 0 mm 2 mps 674 mmHg 66%
    22:00 +13°C° 0 mm 2 mps 674 mmHg 70%
    23:00 +13°C° 0 mm 2 mps 674 mmHg 75%

    Tomorrow, 4 June, Thursday

    Time Temperature Precipitation Wind Pressure Humidity
    00:00 +12°C° 0 mm 2 mps 673 mmHg 79%
    01:00 +12°C° 0 mm 2 mps 673 mmHg 84%
    02:00 +10°C° 0 mm 2 mps 673 mmHg 88%
    03:00 +11°C° 0 mm 1 mps 673 mmHg 88%
    04:00 +11°C° 0 mm 1 mps 673 mmHg 88%
    05:00 +10°C° 0 mm 0 mps 673 mmHg 88%
    06:00 +11°C° 0 mm 0 mps 674 mmHg 80%
    07:00 +13°C° 0 mm 0 mps 674 mmHg 72%
    08:00 +14°C° 0 mm 0 mps 675 mmHg 64%
    09:00 +19°C° 0 mm 1 mps 675 mmHg 55%
    10:00 +20°C° 0 mm 2 mps 676 mmHg 46%
    11:00 +24°C° 0 mm 3 mps 676 mmHg 37%
    12:00 +24°C° 0 mm 3 mps 676 mmHg 34%
    13:00 +25°C° 0 mm 4 mps 675 mmHg 31%
    14:00 +25°C° 0 mm 4 mps 675 mmHg 27%
    15:00 +23°C° 0 mm 4 mps 674 mmHg 30%
    16:00 +22°C° 0 mm 4 mps 674 mmHg 33%
    17:00 +20°C° 0 mm 4 mps 674 mmHg 36%
    18:00 +19°C° 0 mm 3 mps 674 mmHg 44%
    19:00 +17°C° 0 mm 3 mps 674 mmHg 52%
    20:00 +14°C° 0 mm 3 mps 674 mmHg 60%
    21:00 +14°C° 0 mm 3 mps 674 mmHg 63%
    22:00 +13°C° 0 mm 3 mps 675 mmHg 67%
    23:00 +13°C° 0 mm 4 mps 675 mmHg 70%

    Day after tomorrow, 5 June, Friday

    Time Temperature Precipitation Wind Pressure Humidity
    00:00 +12°C° 0 mm 3 mps 675 mmHg 78%
    01:00 +12°C° 0 mm 2 mps 674 mmHg 86%
    02:00 +10°C° 0 mm 2 mps 674 mmHg 93%
    03:00 +11°C° 0 mm 1 mps 674 mmHg 94%
    04:00 +10°C° 0 mm 1 mps 674 mmHg 95%
    05:00 +9°C° 0 mm 0 mps 674 mmHg 96%
    06:00 +11°C° 0 mm 1 mps 675 mmHg 92%
    07:00 +12°C° 0 mm 1 mps 675 mmHg 88%
    08:00 +13°C° 0 mm 1 mps 676 mmHg 84%
    09:00 +16°C° 0 mm 1 mps 676 mmHg 72%
    10:00 +18°C° 0 mm 2 mps 676 mmHg 60%
    11:00 +21°C° 0 mm 2 mps 677 mmHg 47%
    12:00 +22°C° 0 mm 3 mps 676 mmHg 44%
    13:00 +24°C° 0 mm 3 mps 676 mmHg 41%
    14:00 +24°C° 0 mm 3 mps 675 mmHg 37%
    15:00 +22°C° 0 mm 3 mps 675 mmHg 42%
    16:00 +21°C° 0 mm 3 mps 675 mmHg 47%
    17:00 +19°C° 0 mm 3 mps 675 mmHg 51%
    18:00 +18°C° 0.1 mm 4 mps 675 mmHg 58%
    19:00 +15°C° 0.1 mm 4 mps 675 mmHg 64%
    20:00 +14°C° 0.1 mm 4 mps 676 mmHg 71%
    21:00 +13°C° 0 mm 3 mps 675 mmHg 75%
    22:00 +12°C° 0 mm 3 mps 675 mmHg 79%
    23:00 +12°C° 0 mm 2 mps 675 mmHg 83%

    6 June, Saturday

    Time Temperature Precipitation Wind Pressure Humidity
    00:00 +12°C° 0 mm 2 mps 675 mmHg 86%
    01:00 +11°C° 0 mm 1 mps 675 mmHg 89%
    02:00 +10°C° 0 mm 1 mps 674 mmHg 93%
    03:00 +10°C° 0 mm 1 mps 674 mmHg 93%
    04:00 +10°C° 0 mm 1 mps 674 mmHg 93%
    05:00 +9°C° 0 mm 1 mps 674 mmHg 94%
    06:00 +10°C° 0 mm 1 mps 675 mmHg 89%
    07:00 +12°C° 0 mm 2 mps 676 mmHg 85%
    08:00 +13°C° 0 mm 2 mps 676 mmHg 81%
    09:00 +14°C° 0 mm 2 mps 676 mmHg 73%
    10:00 +16°C° 0 mm 3 mps 677 mmHg 65%
    11:00 +17°C° 0 mm 3 mps 677 mmHg 57%
    12:00 +18°C° 0 mm 3 mps 676 mmHg 53%
    13:00 +19°C° 0 mm 4 mps 676 mmHg 50%
    14:00 +19°C° 0 mm 4 mps 676 mmHg 47%
    15:00 +18°C° 0 mm 4 mps 675 mmHg 52%
    16:00 +17°C° 0 mm 4 mps 675 mmHg 57%
    17:00 +16°C° 0 mm 3 mps 675 mmHg 63%
    18:00 +13°C° 0 mm 3 mps 675 mmHg 71%
    19:00 +13°C° 0 mm 2 mps 675 mmHg 79%
    20:00 +11°C° 0 mm 1 mps 676 mmHg 88%
    21:00 +11°C° 0 mm 1 mps 676 mmHg 89%
    22:00 +11°C° 0 mm 1 mps 676 mmHg 90%
    23:00 +10°C° 0 mm 0 mps 675 mmHg 91%

    7 June, Sunday

    Time Temperature Precipitation Wind Pressure Humidity
    00:00 +11°C° 0 mm 1 mps 675 mmHg 92%
    01:00 +10°C° 0 mm 1 mps 675 mmHg 92%
    02:00 +10°C° 0 mm 1 mps 675 mmHg 93%
    03:00 +10°C° 0 mm 1 mps 675 mmHg 93%
    04:00 +10°C° 0 mm 1 mps 675 mmHg 93%
    05:00 +11°C° 0 mm 1 mps 675 mmHg 94%
    06:00 +10°C° 0 mm 2 mps 675 mmHg 91%
    07:00 +12°C° 0 mm 2 mps 676 mmHg 88%
    08:00 +13°C° 0 mm 2 mps 677 mmHg 85%
    09:00 +13°C° 0 mm 3 mps 677 mmHg 78%
    10:00 +14°C° 0 mm 3 mps 677 mmHg 71%
    11:00 +17°C° 0 mm 3 mps 677 mmHg 64%
    12:00 +17°C° 0 mm 3 mps 677 mmHg 59%
    13:00 +18°C° 0 mm 3 mps 676 mmHg 54%
    14:00 +19°C° 0 mm 3 mps 676 mmHg 50%
    15:00 +18°C° 0 mm 3 mps 676 mmHg 53%
    16:00 +17°C° 0 mm 3 mps 675 mmHg 56%
    17:00 +16°C° 0 mm 3 mps 675 mmHg 60%
    18:00 +14°C° 0 mm 2 mps 675 mmHg 68%
    19:00 +12°C° 0 mm 2 mps 675 mmHg 76%
    20:00 +10°C° 0 mm 1 mps 675 mmHg 84%
    21:00 +10°C° 0 mm 1 mps 675 mmHg 84%
    22:00 +10°C° 0 mm 1 mps 675 mmHg 84%
    23:00 +9°C° 0 mm 0 mps 675 mmHg 84%

    8 June, Monday

    Time Temperature Precipitation Wind Pressure Humidity
    00:00 +9°C° 0 mm 0 mps 675 mmHg 85%
    01:00 +8°C° 0 mm 0 mps 675 mmHg 87%
    02:00 +8°C° 0 mm 0 mps 674 mmHg 88%
    03:00 +9°C° 0 mm 1 mps 674 mmHg 89%
    04:00 +10°C° 0 mm 1 mps 674 mmHg 90%
    05:00 +10°C° 0 mm 1 mps 674 mmHg 92%
    06:00 +11°C° 0 mm 1 mps 675 mmHg 87%
    07:00 +12°C° 0 mm 1 mps 675 mmHg 82%
    08:00 +14°C° 0 mm 1 mps 676 mmHg 77%
    09:00 +16°C° 0 mm 2 mps 676 mmHg 68%
    10:00 +18°C° 0 mm 3 mps 677 mmHg 59%
    11:00 +21°C° 0 mm 4 mps 677 mmHg 50%
    12:00 +21°C° 0 mm 4 mps 676 mmHg 46%
    13:00 +22°C° 0 mm 4 mps 676 mmHg 41%
    14:00 +22°C° 0 mm 4 mps 675 mmHg 36%
    15:00 +21°C° 0 mm 4 mps 675 mmHg 40%
    16:00 +20°C° 0 mm 3 mps 674 mmHg 44%
    17:00 +19°C° 0 mm 3 mps 674 mmHg 48%
    18:00 +17°C° 0 mm 2 mps 674 mmHg 60%
    19:00 +15°C° 0 mm 2 mps 674 mmHg 73%
    20:00 +13°C° 0 mm 2 mps 674 mmHg 86%
    21:00 +12°C° 0 mm 2 mps 674 mmHg 87%
    22:00 +12°C° 0 mm 2 mps 674 mmHg 89%
    23:00 +12°C° 0 mm 1 mps 674 mmHg 91%
    Show more